Weather History for KCLS - March, 2013

Change the Weather History Date:

Monday, March 4, 2013

  Actual Average (KOLM) Record (KOLM)
Temperature  
Mean Temperature 44 °F 43 °F  
Max Temperature 55 °F 52 °F 66 °F (1965)
Min Temperature 32 °F 34 °F 18 °F (1955)
Degree Days  
Heating Degree Days 22 22  
Month to date heating degree days 89  
Since 1 July heating degree days 3811  
Cooling Degree Days 0 0  
Month to date cooling degree days 0  
Year to date cooling degree days 0  
Moisture  
Dew Point 32 °F    
Average Humidity 79    
Maximum Humidity 100    
Minimum Humidity 33    
Precipitation  
Precipitation 0.00 in 0.18 in 1.12 in (1950)
Month to date precipitation 0.75  
Year to date precipitation 13.86  
Sea Level Pressure  
Sea Level Pressure 30.11 in    
Wind  
Wind Speed 3 mph (NNE)    
Max Wind Speed 12 mph    
Max Gust Speed -    
Visibility 6 miles    
Events Fog    
T = Trace of Precipitation, MM = Missing Value Source: NWS Daily Summary

Daily Weather History Graph

Daily Weather History Graph

Search for Another Location

Airport or City:

Trip Planner

Search our weather history database for the weather conditions in past years. The results will help you decide how hot, cold, wet, or windy it might be!

Date:

Astronomy

Mar. 04, 2013 Rise Set
Actual Time 6:45 AM PST 6:02 PM PST
Civil Twilight 6:14 AM PST 6:32 PM PST
Nautical Twilight 5:40 AM PST 7:07 PM PST
Astronomical Twilight 5:04 AM PST 7:43 PM PST
Moon 1:16 AM PST (3/4) 10:33 AM PST (3/4)
Length of Visible Light 12h 17m
Length of Day
11h 17m
Waning Gibbous, 51% of the Moon is Illuminated
Mar 4
Waning Gibbous
Mar 4
Last Quarter
Mar 11
New
Mar 19
First Quarter
Mar 27
Full

Hourly Weather History & Observations

Time (PST) Temp. Windchill Dew Point Humidity Pressure Visibility Wind Dir Wind Speed Gust Speed Precip Events Conditions
12:15 AM 32.0 °F - 32.0 °F 100% 30.31 in 8.0 mi Calm Calm - N/A   Partly Cloudy
12:35 AM 32.0 °F - 32.0 °F 100% 30.30 in 0.2 mi Calm Calm - N/A Fog Fog
1:15 AM 32.0 °F - 32.0 °F 100% 30.29 in 1.2 mi Calm Calm - N/A   Overcast
1:35 AM 32.0 °F - 32.0 °F 100% 30.29 in 0.8 mi Calm Calm - N/A   Overcast
1:55 AM 32.0 °F - 32.0 °F 100% 30.29 in 0.2 mi Calm Calm - N/A Fog Fog
2:15 AM 32.0 °F - 32.0 °F 100% 30.29 in 0.2 mi Calm Calm - N/A Fog Fog
2:55 AM 32.0 °F - 32.0 °F 100% 30.28 in 0.2 mi Calm Calm - N/A Fog Fog
3:15 AM 32.0 °F - 32.0 °F 100% 30.27 in 0.2 mi Calm Calm - N/A Fog Fog
3:35 AM 32.0 °F - 32.0 °F 100% 30.27 in 0.2 mi Calm Calm - N/A Fog Fog
4:15 AM 32.0 °F 28.7 °F 32.0 °F 100% 30.26 in 0.2 mi ENE 3.5 mph - N/A Fog Light Freezing Fog
4:35 AM 32.0 °F 28.7 °F 32.0 °F 100% 30.27 in 0.2 mi NE 3.5 mph - N/A Fog Light Freezing Fog
4:55 AM 32.0 °F - 32.0 °F 100% 30.26 in 0.2 mi Calm Calm - N/A Fog Light Freezing Fog
5:15 AM 32.0 °F 28.7 °F 32.0 °F 100% 30.26 in 0.2 mi NE 3.5 mph - N/A Fog Light Freezing Fog
5:35 AM 32.0 °F 28.7 °F 32.0 °F 100% 30.26 in 0.2 mi South 3.5 mph - N/A Fog Light Freezing Fog
5:55 AM 32.0 °F 28.7 °F 32.0 °F 100% 30.25 in 0.2 mi WNW 3.5 mph - N/A Fog Light Freezing Fog
6:15 AM 32.0 °F - 32.0 °F 100% 30.25 in 0.2 mi Calm Calm - N/A Fog Light Freezing Fog
6:35 AM 32.0 °F - 32.0 °F 100% 30.24 in 0.2 mi Calm Calm - N/A Fog Light Freezing Fog
6:55 AM 32.0 °F - 32.0 °F 100% 30.24 in 0.2 mi Calm Calm - N/A Fog Light Freezing Fog
7:15 AM 32.0 °F - 30.2 °F 93% 30.24 in 0.2 mi Calm Calm - N/A Fog Light Freezing Fog
7:35 AM 32.0 °F - 32.0 °F 100% 30.24 in 0.2 mi Calm Calm - N/A Fog Light Freezing Fog
7:55 AM 32.0 °F 28.7 °F 32.0 °F 100% 30.24 in 0.2 mi North 3.5 mph - N/A Fog Light Freezing Fog
8:15 AM 32.0 °F - 32.0 °F 100% 30.24 in 0.2 mi Calm Calm - N/A Fog Light Freezing Fog
8:35 AM 32.0 °F - 32.0 °F 100% 30.23 in 0.2 mi Calm Calm - N/A Fog Light Freezing Fog
8:55 AM 32.0 °F 28.7 °F 32.0 °F 100% 30.23 in 0.2 mi ENE 3.5 mph - N/A Fog Fog
9:15 AM 32.0 °F 27.5 °F 32.0 °F 100% 30.21 in 0.2 mi NNE 4.6 mph - N/A Fog Fog
9:35 AM 32.0 °F 27.5 °F 32.0 °F 100% 30.21 in 3.0 mi North 4.6 mph - N/A   Overcast
9:55 AM 32.0 °F 27.5 °F 32.0 °F 100% 30.20 in 7.0 mi NNE 4.6 mph - N/A   Scattered Clouds
10:15 AM 35.6 °F 30.7 °F 35.6 °F 100% 30.19 in 10.0 mi NNE 5.8 mph - N/A   Clear
10:35 AM 39.2 °F 33.6 °F 37.4 °F 93% 30.18 in 5.0 mi NNE 8.1 mph - N/A   Clear
10:55 AM 41.0 °F 35.2 °F 35.6 °F 81% 30.16 in 10.0 mi North 9.2 mph - N/A   Clear
11:15 AM 44.6 °F 38.8 °F 32.0 °F 61% 30.15 in 10.0 mi NNE 11.5 mph - N/A   Clear
11:35 AM 46.4 °F 41.9 °F 32.0 °F 57% 30.15 in 10.0 mi NNE 9.2 mph - N/A   Clear
12:15 PM 48.2 °F - 32.0 °F 54% 30.13 in 6.0 mi North 6.9 mph - N/A   Haze
12:35 PM 48.2 °F - 32.0 °F 54% 30.12 in 10.0 mi North 9.2 mph - N/A   Clear
12:55 PM 50.0 °F - 32.0 °F 50% 30.10 in 10.0 mi NNE 10.4 mph - N/A   Clear
1:15 PM 50.0 °F - 32.0 °F 50% 30.09 in 5.0 mi North 8.1 mph - N/A   Haze
1:35 PM 51.8 °F - 32.0 °F 47% 30.08 in 9.0 mi North 8.1 mph - N/A   Clear
1:55 PM 53.6 °F - 32.0 °F 44% 30.07 in 10.0 mi NNE 8.1 mph - N/A   Clear
2:15 PM 53.6 °F - 30.2 °F 41% 30.05 in 10.0 mi North 8.1 mph - N/A   Clear
2:35 PM 53.6 °F - 30.2 °F 41% 30.04 in 10.0 mi NNE 10.4 mph - N/A   Clear
2:55 PM 53.6 °F - 32.0 °F 44% 30.02 in 10.0 mi North 8.1 mph - N/A   Clear
3:15 PM 53.6 °F - 32.0 °F 44% 30.02 in 10.0 mi North 6.9 mph - N/A   Clear
3:35 PM 55.4 °F - 26.6 °F 33% 30.01 in 10.0 mi NNE 5.8 mph - N/A   Clear
3:55 PM 53.6 °F - 32.0 °F 44% 30.00 in 10.0 mi North 8.1 mph - N/A   Clear
4:15 PM 53.6 °F - 32.0 °F 44% 30.00 in 10.0 mi NNE 8.1 mph - N/A   Clear
4:35 PM 53.6 °F - 32.0 °F 44% 29.99 in 10.0 mi North 8.1 mph - N/A   Clear
4:55 PM 50.0 °F - 32.0 °F 50% 29.99 in 10.0 mi North 8.1 mph - N/A   Clear
5:15 PM 50.0 °F - 32.0 °F 50% 29.98 in 10.0 mi NNE 9.2 mph - N/A   Clear
5:35 PM 50.0 °F - 32.0 °F 50% 29.98 in 10.0 mi North 6.9 mph - N/A   Clear
5:55 PM 48.2 °F - 32.0 °F 54% 29.98 in 10.0 mi North 5.8 mph - N/A   Clear
6:15 PM 46.4 °F 44.3 °F 32.0 °F 57% 29.98 in 10.0 mi North 4.6 mph - N/A   Clear
6:35 PM 44.6 °F 41.4 °F 32.0 °F 61% 29.97 in 10.0 mi North 5.8 mph - N/A   Clear
6:55 PM 42.8 °F 41.1 °F 33.8 °F 70% 29.96 in 10.0 mi North 3.5 mph - N/A   Clear
7:15 PM 42.8 °F 39.3 °F 32.0 °F 66% 29.96 in 10.0 mi North 5.8 mph - N/A   Clear
7:35 PM 42.8 °F 40.1 °F 32.0 °F 66% 29.96 in 10.0 mi North 4.6 mph - N/A   Clear
7:55 PM 39.2 °F - 33.8 °F 81% 29.96 in 10.0 mi Calm Calm - N/A   Clear
8:15 PM 39.2 °F - 32.0 °F 75% 29.96 in 10.0 mi Calm Calm - N/A   Clear
8:35 PM 37.4 °F - 32.0 °F 81% 29.95 in 10.0 mi Calm Calm - N/A   Clear
8:55 PM 37.4 °F - 32.0 °F 81% 29.96 in 10.0 mi Calm Calm - N/A   Clear
9:15 PM 35.6 °F - 32.0 °F 87% 29.96 in 10.0 mi Calm Calm - N/A   Clear
9:35 PM 35.6 °F - 32.0 °F 87% 29.96 in 10.0 mi Calm Calm - N/A   Clear
9:55 PM 35.6 °F 32.8 °F 32.0 °F 87% 29.95 in 10.0 mi ENE 3.5 mph - N/A   Clear
10:15 PM 33.8 °F - 32.0 °F 93% 29.94 in 10.0 mi Calm Calm - N/A   Clear
10:35 PM 33.8 °F - 32.0 °F 93% 29.94 in 10.0 mi Calm Calm - N/A   Clear
10:55 PM 33.8 °F - 32.0 °F 93% 29.93 in 8.0 mi Calm Calm - N/A   Clear
11:15 PM 32.0 °F - 32.0 °F 100% 29.93 in 7.0 mi Calm Calm - N/A   Clear
11:35 PM 32.0 °F - 32.0 °F 100% 29.94 in 10.0 mi Calm Calm - N/A   Clear
11:55 PM 32.0 °F - 32.0 °F 100% 29.93 in 8.0 mi Calm Calm - N/A   Clear